Regional Weather Roundup
Issued by NWS Green Bay, WI

Home | Current Version | Previous Version | Graphics & Text | Print | Product List | Glossary Off
Versions: 1 2 3 4 5 6 7 8 9 10 11 12 13 14 15 16 17 18 19 20 21 22 23 24 25 26 27 28 29 30 31 32 33 34 35 36 37 38 39 40 41 42 43 44 45 46 47 48 49 50

000
ASUS43 KGRB 031511
RWRGRB

NORTH-CENTRAL AND NORTHEAST WISCONSIN REGIONAL WEATHER ROUNDUP
NATIONAL WEATHER SERVICE GREEN BAY WI
1000 AM CDT FRI JUL 03 2015

WIZ005-009-010>012-018-019-031600-
NORTH CENTRAL WISCONSIN

CITY           SKY/WX    TMP DP  RH WIND       PRES   REMARKS
IRONWOOD       CLOUDY    66  54  63 SW13      29.89S
MANITOWISH WTR MOSUNNY   67  55  66 W10G18    29.94F
ARBOR VITAE    MOSUNNY   67  56  68 W7        29.95F
EAGLE RIVER    MOSUNNY   64  54  68 SW9       29.95F
LAND O LAKES   PTSUNNY   64  55  70 W5        29.95F
RHINELANDER    MOSUNNY   66  55  67 SW7       29.98S
PHILLIPS       PTSUNNY   67  57  70 SW8       29.96F
ANTIGO         SUNNY     64  54  70 W5        29.99S
TOMAHAWK       MOSUNNY   66  55  66 SW5       29.97F
MERRILL        MOSUNNY   66  56  70 W3        29.98F
$$

WIZ013-073-031600-
NORTHEAST WISCONSIN

CITY           SKY/WX    TMP DP  RH WIND       PRES   REMARKS
IRON MOUNTAIN  MOSUNNY   68  53  58 W7        29.94F
MARINETTE      SUNNY     64  52  63 W8        29.96S
OCONTO         SUNNY     67  54  62 W9        29.97F
$$

WIZ017-030-035>037-045-031600-
CENTRAL WISCONSIN

CITY           SKY/WX    TMP DP  RH WIND       PRES   REMARKS
MEDFORD        SUNNY     66  55  66 W7        29.99S
WAUSAU         SUNNY     66  54  65 SW6       29.97F
MOSINEE        SUNNY     63  55  77 SW5       30.00F
MARSHFIELD     SUNNY     66  55  67 SW7       29.99F
WISC RAPIDS    SUNNY     66  53  63 VRB5      30.00F
STEVENS POINT  SUNNY     64  51  61 SW6       30.00S
WAUPACA        SUNNY     69  54  58 S5        30.00S
SHAWANO        SUNNY     68  53  58 W6        29.99S
CLINTONVILLE   SUNNY     66  52  59 SW6       29.98F
$$

WIZ038-039-048-051-031600-
FOX VALLEY

CITY           SKY/WX    TMP DP  RH WIND       PRES   REMARKS
NWS GREEN BAY  SUNNY     68  54  60 W8        29.99F
APPLETON       SUNNY     66  54  63 W7        30.00F
OSHKOSH        SUNNY     67  52  58 VRB3      29.99F
FOND DU LAC    SUNNY     67  52  58 CALM      30.00F
$$

WIZ022-050-052-031600-
EAST CENTRAL WISCONSIN

CITY           SKY/WX    TMP DP  RH WIND       PRES   REMARKS
STURGEON BAY   SUNNY     66  54  63 SW10      29.99F
MANITOWOC      SUNNY     69  52  54 MISG      29.99F
SHEBOYGAN      SUNNY     69  55  60 SW5       29.99F
$$

LMZ563-521-522-541>543-031600-
LAKESHORE

STATION/POSITION TIME  TEMP    WIND        PRES    VSBY  WAVE
                       AIR SEA DIR/SP/G                  HT/PER
                 (UTC) (F)     (DEG/KT/KT) (MB)    (MI)  (FT/S)
SHEBOYGAN LKSHOR 1500   58     140/  5/  6 1016.1F
KEWAUNEE LKSHORE 1400   61     160/  6/  7 1014.9S
ALGOMA MARINA    1410          260/  7/  9   N/A
NORTHPORT PIER   1400   66     200/  3/ 10 1014.6F
N MID LAKE BUOY  1450   49 44  210/  8/ 10 1014.8R         0
S GREEN BAY BUOY 1500   65 68  220/ 14/ 16 1016.4F
CHAMBERS ISLAND  1400   64     200/  5/ 12 1014.9S
MENOMINEE LKSHOR 1400   63     230/  9/ 12 1015.4F
$$


USA.gov is the U.S. government's official web portal to all federal, state and local government web resources and services.